Theta_e
308 308 308 308 308 307 307 306 305 305 305 303 303 303 304 305 306 306 306 306 306 306 306 306 307 308 309 316 315 316 319 317 321 320 322 320 320 319 320 320 320 321 319 317 316 312 314
309 309 309 308 308 308 307 305 305 304 305 305 304 302 302 303 303 304 305 305 305 305 306 306 307 308 311 312 311 313 315 317 321 322 322 321 320 318 320 320 321 320 317 317 314 314 314
309 309 309 308 308 308 308 307 306 306 305 304 304 303 303 301 300 300 302 304 305 305 306 306 307 309 316 308 311 319 322 322 321 322 320 322 321 320 320 321 319 317 319 316 316 314 315
312 311 309 308 308 308 308 307 307 306 305 305 304 305 303 301 300 298 298 303 305 306 307 307 308 315 311 311 312 311 312 314 315 323 322 322 322 320 321 320 318 318 316 317 317 314 315
307 307 310 311 310 308 307 307 307 307 306 305 305 305 303 302 301 300 298 302 305 306 311 313 315 316 311 313 316 312 312 315 317 322 322 321 319 318 318 318 318 316 320 318 318 314 315
306 306 306 306 307 309 309 308 307 306 306 306 306 305 304 303 302 300 299 302 306 313 315 313 317 313 308 309 314 318 315 317 320 319 320 320 316 317 314 316 320 320 319 318 318 318 315
304 304 305 306 306 307 308 310 309 307 307 306 306 306 305 304 303 302 300 304 309 315 319 312 309 309 312 315 315 318 319 320 320 319 319 318 318 318 317 317 318 319 319 319 320 318 316
303 303 303 305 305 306 306 306 306 309 308 306 305 305 305 304 303 301 300 303 305 305 310 311 311 313 314 314 315 314 320 319 319 320 318 318 319 318 317 318 318 317 318 318 317 317 315
304 304 303 302 302 303 303 304 304 306 307 309 306 305 304 304 303 302 302 306 304 305 310 314 312 314 314 314 315 315 318 319 320 319 318 319 320 319 319 319 319 318 319 318 318 318 315
300 301 303 304 303 302 302 303 303 304 305 307 309 306 304 304 303 301 301 303 304 306 315 315 315 315 314 315 316 315 319 320 320 320 318 319 319 320 319 320 319 320 318 319 318 318 318
299 299 299 300 301 304 304 302 302 302 304 305 307 308 304 303 303 302 301 301 304 307 309 311 316 316 313 315 315 316 317 319 320 321 319 322 319 320 320 320 318 320 319 318 318 317 316
300 300 300 299 299 300 300 303 303 303 302 303 305 307 305 303 302 302 302 301 307 316 318 314 316 316 315 315 315 315 317 318 318 319 319 321 318 318 320 319 318 319 318 315 315 314 316
301 301 300 300 299 298 300 300 302 303 303 302 302 306 306 303 302 302 302 305 315 317 313 313 314 315 316 316 315 316 317 317 318 320 320 319 319 319 319 320 316 316 314 317 317 317 320
303 303 303 302 301 300 298 300 300 303 303 303 302 303 307 304 303 303 302 309 317 314 313 313 313 315 316 315 316 315 315 318 316 318 319 321 322 319 318 319 319 314 314 316 318 316 315
303 303 303 304 303 301 300 299 300 300 303 302 303 303 307 305 303 303 303 312 312 313 313 313 313 315 316 316 316 316 315 316 317 317 321 320 321 319 318 318 318 317 315 314 315 317 319
304 305 304 304 305 304 301 300 299 300 301 303 303 304 306 305 304 303 303 308 313 313 312 313 314 313 315 315 316 316 315 315 315 317 317 318 321 319 319 317 316 317 315 317 313 319 320
304 304 302 302 304 305 304 302 300 299 300 303 304 306 306 305 304 303 303 303 307 313 313 312 312 313 314 314 315 315 316 316 316 317 317 316 319 320 319 321 319 318 319 318 313 314 317
304 304 303 302 303 304 305 303 300 300 299 303 304 306 304 304 305 305 305 304 307 309 313 313 312 311 313 313 314 315 317 316 316 317 317 316 317 319 325 322 322 318 318 320 319 319 319
303 304 305 301 302 302 304 303 301 300 300 303 305 305 303 304 308 306 304 305 304 306 312 312 312 313 312 314 315 315 316 315 315 317 316 316 316 318 318 329 326 326 325 320 321 321 327
302 303 304 302 302 302 304 303 300 300 301 302 298 304 303 304 304 304 305 305 304 304 307 309 311 312 312 314 313 315 318 316 316 316 324 319 315 318 321 319 327 328 330 326 323 325 324
302 303 303 302 303 303 302 301 301 301 302 302 298 302 304 306 306 304 302 303 305 304 306 308 311 312 312 313 313 313 313 314 314 317 320 315 317 317 317 317 324 322 326 328 325 323 325
302 302 302 303 303 302 302 301 301 301 301 303 300 303 303 302 305 306 305 305 304 305 303 307 309 311 310 312 311 313 313 313 314 309 315 317 318 316 318 318 319 321 322 327 326 324 327
301 302 301 303 302 301 302 302 301 301 302 301 297 300 304 304 306 307 307 306 307 306 306 306 308 308 308 310 308 307 307 308 309 310 308 317 322 321 321 325 324 324 321 327 326 325 324
301 301 301 302 302 302 302 303 302 302 302 299 300 302 302 306 306 308 307 306 306 306 307 310 307 307 308 309 309 309 307 307 308 308 308 318 322 324 331 330 330 325 324 325 327 326 323
300 301 301 302 301 301 301 301 303 302 302 301 301 302 300 306 306 306 308 306 306 306 307 309 310 309 307 310 310 311 312 311 311 311 317 319 323 327 331 325 328 329 327 326 327 327 324
299 300 301 302 302 301 301 301 301 302 302 301 301 301 302 303 305 307 307 308 307 306 307 308 307 306 309 309 311 313 315 315 315 327 324 322 322 325 321 330 333 326 326 325 324 328 324
299 300 302 302 302 302 302 301 301 301 301 301 302 302 300 304 302 305 306 307 305 306 306 307 307 310 308 309 302 307 313 315 321 329 329 324 323 328 321 321 324 322 325 323 330 327 323
299 300 301 303 302 302 301 301 301 302 302 302 302 301 302 303 303 303 304 307 307 305 306 306 308 308 310 310 312 313 314 312 314 321 326 326 324 324 319 324 328 322 325 329 325 322 323
299 299 300 302 304 302 302 302 302 302 303 302 302 302 302 303 302 302 303 303 304 305 305 304 307 309 312 310 312 314 317 317 312 313 323 326 323 325 323 324 320 324 324 322 319 322 323
Wind_Speed
18 18 18 18 19 19 21 22 21 20 19 19 19 20 21 22 23 23 23 24 24 24 24 22 19 16 6 1 10 20 17 21 8 23 22 7 6 4 4 4 5 5 5 1 4 7 4
21 21 21 21 22 22 22 22 21 21 21 20 21 22 22 21 22 24 24 24 25 25 24 23 22 15 2 7 15 20 24 19 8 21 12 11 8 9 4 5 6 7 5 2 2 1 2
24 23 22 23 23 23 25 23 21 21 22 22 22 22 22 22 24 25 25 25 25 26 25 25 22 6 4 18 10 7 1 4 10 19 6 18 10 6 4 5 2 3 2 5 1 4 3
23 25 25 25 24 24 24 24 25 23 23 23 23 22 23 23 24 26 27 26 25 26 28 22 11 7 8 12 13 27 27 29 19 14 18 3 11 3 2 3 4 3 4 3 4 5 3
31 29 25 26 26 25 24 24 25 25 24 22 22 23 24 25 26 27 27 26 24 24 14 3 7 5 9 6 9 23 25 11 7 10 8 6 7 5 2 2 3 7 3 4 6 7 3
27 27 31 32 32 28 27 25 23 24 25 22 22 21 23 24 25 27 27 25 17 2 5 6 1 1 8 5 7 6 16 15 4 6 4 4 4 3 2 2 5 4 3 3 4 3 4
26 28 29 28 29 29 30 26 27 25 23 22 23 22 21 21 22 23 25 8 3 2 4 8 4 5 6 7 5 3 8 12 4 5 7 4 4 8 9 7 5 4 3 5 4 5 5
28 29 30 29 29 29 29 31 30 28 26 26 22 20 20 20 21 23 11 1 5 4 8 11 17 14 30 9 6 5 16 7 6 6 7 4 12 7 7 4 4 3 3 5 5 3 6
28 28 29 30 31 32 33 32 30 29 28 27 24 23 21 20 23 7 3 3 10 9 4 7 10 10 9 12 9 9 7 5 6 7 7 9 4 7 7 5 4 5 3 5 7 2 3
32 31 30 31 30 30 31 32 32 30 27 26 26 22 18 18 11 11 1 7 10 3 4 7 7 9 10 11 6 12 13 6 2 14 9 7 6 8 5 5 8 4 8 6 4 2 5
33 33 34 35 34 31 33 32 31 31 27 25 23 21 14 8 13 6 6 16 16 4 5 6 6 1 8 14 10 8 12 2 10 7 7 10 8 6 5 10 7 10 3 5 3 4 2
33 33 35 36 36 34 34 32 32 29 28 24 22 21 14 6 8 12 16 17 1 4 11 5 6 8 7 6 7 7 7 4 6 7 3 10 5 9 12 8 9 3 3 6 4 4 1
34 35 36 37 37 37 34 33 30 31 28 26 23 21 18 12 3 4 17 3 3 7 2 6 7 7 11 6 8 10 13 13 11 8 11 4 5 4 5 5 3 5 6 4 4 3 6
36 38 39 38 37 36 35 32 31 27 28 27 25 20 20 19 14 10 5 3 9 9 12 3 5 6 9 8 11 9 8 15 14 7 6 10 9 10 4 8 10 7 9 5 6 3 5
40 40 41 39 38 36 35 34 31 28 26 26 25 22 17 21 17 8 2 8 13 7 13 4 3 5 5 8 7 10 18 16 13 13 17 8 8 3 7 5 11 5 4 6 4 1 2
45 48 46 40 40 41 35 34 30 28 24 23 23 13 20 22 21 11 2 25 8 6 5 24 9 6 10 7 9 17 14 16 13 9 6 7 2 5 7 5 1 9 6 2 2 2 4
46 42 39 38 39 37 39 33 30 26 22 18 13 4 12 27 25 5 8 14 21 8 3 15 23 7 7 8 10 8 7 9 21 10 12 6 6 4 6 7 9 3 3 4 4 4 5
47 46 38 37 34 31 31 31 29 24 18 17 6 4 23 38 7 5 16 8 7 23 4 3 3 8 8 7 9 11 12 12 12 15 13 8 7 6 8 3 5 7 10 9 5 5 3
48 47 40 35 33 27 24 26 25 23 20 7 2 2 16 29 10 12 15 11 10 9 6 2 3 4 4 6 4 5 6 6 9 17 12 8 3 3 5 3 1 4 5 5 5 4 7
49 49 44 31 31 22 14 20 23 23 23 20 3 5 3 6 4 14 16 17 7 16 12 1 3 4 2 5 1 4 2 3 2 6 10 15 6 11 15 5 6 5 5 6 7 5 5
52 51 39 30 29 13 10 15 18 18 21 17 3 2 2 4 8 11 6 3 21 8 9 3 3 4 3 4 4 4 2 2 4 4 4 7 8 6 5 10 11 13 8 12 9 8 8
50 41 39 33 21 8 10 13 15 16 16 12 3 2 2 2 11 15 8 4 16 20 3 11 4 3 5 4 4 3 3 2 2 7 4 0 4 8 7 9 13 11 16 15 17 3 2
47 40 37 30 18 10 7 12 15 14 20 4 2 0 3 1 4 9 12 13 5 2 2 4 4 2 5 1 5 6 6 4 3 1 2 1 4 4 5 5 7 16 15 13 8 5 9
45 40 35 26 19 17 11 10 15 16 23 7 2 3 1 3 3 5 7 16 13 5 1 3 5 5 2 4 3 1 1 4 7 5 6 2 4 2 3 6 8 5 8 16 19 11 7
42 42 31 25 17 15 11 5 7 14 20 12 6 2 1 2 5 6 2 13 15 12 7 2 3 2 3 4 2 1 2 0 7 7 6 8 5 2 5 4 4 1 5 8 8 11 14
40 37 32 26 11 11 9 3 1 10 17 15 7 7 2 2 3 7 7 2 3 3 3 3 3 4 2 1 1 6 5 5 6 5 5 5 3 5 3 7 10 6 6 5 5 6 10
39 38 39 20 17 13 8 4 3 8 16 13 5 5 3 1 4 5 3 0 3 3 3 3 3 0 4 3 2 3 7 2 6 12 6 4 2 12 2 4 6 5 8 7 8 7 8
36 35 32 27 17 14 7 5 3 6 14 12 4 9 3 1 3 4 3 1 1 2 3 2 2 2 0 5 4 4 4 10 6 6 9 8 7 5 2 3 8 6 5 12 8 3 6
35 35 32 30 25 9 7 5 3 7 11 10 2 4 4 1 3 4 7 8 2 2 3 1 1 1 2 3 3 3 3 2 11 13 3 10 7 7 9 6 4 14 11 13 7 6 6
Wind_Direction
322 319 316 315 313 314 316 316 316 315 315 313 314 315 314 316 316 316 316 315 314 316 316 318 315 316 324 345 246 248 274 309 324 207 199 159 162 144 229 230 159 191 260 202 241 157 171
320 318 314 312 311 315 317 314 313 314 314 314 314 313 313 311 310 307 307 308 310 312 314 315 312 311 167 253 263 271 271 276 258 201 189 151 191 195 259 224 170 211 203 57 52 161 171
309 309 307 306 308 310 313 314 314 315 315 315 316 315 315 315 312 311 306 303 306 310 310 308 303 268 234 235 238 263 136 220 235 210 178 206 157 167 175 280 248 84 121 38 245 150 235
306 298 300 302 304 304 301 301 307 313 315 316 317 317 318 319 317 314 311 305 306 307 306 300 282 170 243 260 257 256 249 268 274 231 216 138 193 223 184 251 35 96 53 101 278 150 250
308 306 301 298 290 291 292 295 299 307 313 314 315 317 321 324 324 321 313 306 305 304 308 248 138 172 263 287 240 255 239 214 199 217 198 116 130 184 356 201 31 11 225 208 310 202 131
314 309 298 297 301 296 288 289 293 297 303 310 311 316 321 322 323 324 318 313 307 118 101 138 148 294 269 238 244 237 215 204 157 123 95 123 77 176 73 106 214 236 236 231 243 243 184
310 307 304 304 303 298 295 293 286 289 293 298 302 307 310 315 321 327 329 333 6 189 213 201 203 241 289 337 263 222 174 140 114 101 156 165 143 206 203 203 190 199 203 249 268 243 182
315 310 308 307 302 301 299 298 295 287 282 284 295 304 302 311 319 319 310 285 62 298 295 236 246 249 265 303 316 306 163 133 148 165 113 84 221 187 201 175 181 166 229 268 275 278 162
324 314 311 307 304 299 294 296 296 292 287 283 283 294 306 313 319 321 307 101 342 356 256 263 204 216 222 158 222 253 194 145 140 153 169 187 184 166 171 200 175 203 175 233 241 314 240
322 317 317 310 302 300 297 293 293 294 289 281 282 284 298 314 300 329 223 341 340 330 293 270 205 249 173 144 237 210 188 152 144 189 170 209 198 174 169 196 168 253 217 230 268 39 272
320 317 313 309 310 305 295 290 290 288 287 279 277 275 285 302 312 301 316 326 333 147 288 247 204 222 177 171 154 215 175 112 166 177 142 213 158 177 173 213 165 232 142 196 229 209 108
316 312 309 307 304 300 299 298 286 286 284 281 274 272 263 256 267 271 315 315 197 74 243 269 194 177 119 201 188 146 158 145 160 162 245 203 192 166 198 214 175 171 106 49 56 96 57
311 308 304 299 298 298 296 295 292 284 281 277 275 260 242 213 223 264 327 328 126 206 216 217 203 162 178 163 197 165 170 181 182 162 204 170 187 195 145 151 87 94 71 339 338 8 225
314 310 302 299 293 288 289 286 288 283 276 274 272 262 232 219 239 262 319 84 218 216 203 292 165 148 181 153 208 187 156 188 211 160 163 184 226 170 178 169 183 180 155 157 230 228 260
328 321 312 299 284 283 277 279 279 278 275 267 269 259 222 198 213 217 123 198 223 175 196 227 118 141 200 192 158 179 214 205 187 185 203 174 227 136 165 155 147 179 153 197 136 163 60
331 322 315 306 293 274 272 268 271 273 273 265 250 239 240 185 186 163 128 225 221 198 152 202 197 169 187 185 174 190 181 210 206 172 141 196 175 206 198 96 29 168 161 110 17 197 231
335 331 322 318 309 285 262 262 261 263 264 255 235 231 191 180 154 176 211 226 221 295 305 185 219 193 214 178 180 193 225 218 191 171 174 135 136 268 106 177 167 125 163 58 124 149 187
340 338 326 321 316 301 263 248 252 253 250 240 232 218 163 154 185 198 228 212 326 221 266 273 202 198 194 184 183 199 205 198 180 162 172 184 153 193 200 195 174 206 187 168 161 231 213
341 340 330 325 321 311 271 239 243 243 230 206 221 203 180 178 200 214 230 243 265 253 271 298 270 211 191 192 188 174 169 218 161 176 155 169 196 158 324 6 313 172 179 150 120 95 190
342 338 333 321 325 316 268 227 236 239 230 206 138 189 156 231 228 211 219 234 261 241 276 68 316 305 134 160 230 148 142 71 94 157 167 160 158 191 221 203 160 186 181 184 155 137 184
345 337 333 330 327 299 262 244 241 245 225 195 135 236 308 176 206 215 179 249 218 250 225 122 235 261 189 161 98 124 200 13 99 249 116 144 205 182 192 196 191 211 193 181 190 191 169
350 355 352 345 337 311 260 245 240 228 216 195 166 164 158 280 222 218 224 207 237 218 276 222 251 167 25 56 53 104 61 82 89 19 99 34 216 176 214 200 193 214 216 194 207 124 94
351 352 352 355 355 337 280 248 236 223 194 121 212 311 313 100 241 207 212 214 237 227 2 154 122 6 59 218 277 245 216 261 233 45 0 316 138 106 220 185 132 243 208 190 198 188 161
354 352 351 354 356 353 290 259 229 216 197 124 190 108 154 268 214 226 216 202 234 173 229 43 153 141 235 312 253 352 354 239 278 246 178 205 112 102 156 114 207 270 210 185 198 200 192
357 356 353 352 357 2 14 61 194 193 187 184 176 119 117 284 277 200 274 201 204 228 215 222 283 159 334 336 42 345 24 204 255 260 219 181 134 149 148 209 292 232 148 144 158 226 198
357 354 354 356 356 8 2 344 202 188 196 192 196 191 89 245 262 298 151 153 138 144 132 217 310 350 314 200 131 188 193 184 172 199 57 136 190 156 168 176 217 201 202 138 79 249 199
0 2 359 358 352 336 335 310 276 211 195 190 182 169 121 259 283 353 62 128 149 129 151 239 304 179 167 182 127 186 221 208 201 171 170 144 115 206 166 217 275 249 146 136 147 232 182
1 3 1 2 346 356 357 338 264 213 201 179 184 206 220 258 231 257 276 218 103 91 138 215 55 301 98 179 178 223 218 211 260 215 173 161 150 186 117 169 240 167 105 158 200 216 196
360 2 4 7 7 353 358 8 329 209 175 162 129 165 241 276 271 283 273 269 269 174 153 113 197 221 224 177 200 185 290 286 201 236 228 193 183 185 189 203 224 179 170 209 162 163 193